Weather History for Frederick, OK

Change the Weather History Date:

Wednesday, December 4, 2013

  Actual Average (KLTS) Record (KLTS)
Temperature  
Mean Temperature 40 °F -  
Max Temperature 48 °F 54 °F 72 °F (2007)
Min Temperature 32 °F 32 °F 19 °F (2006)
Degree Days  
Heating Degree Days 24    
Moisture  
Dew Point 27 °F    
Average Humidity 55    
Maximum Humidity 76    
Minimum Humidity 46    
Precipitation  
Precipitation 0.00 in - - ()
Sea Level Pressure  
Sea Level Pressure 29.73 in    
Wind  
Wind Speed 13 mph (NNW)    
Max Wind Speed 26 mph    
Max Gust Speed 32 mph    
Visibility 10 miles    
Events      
Averages and records for this station are not official NWS values.
T = Trace of Precipitation, MM = Missing Value Source: NWS Daily Summary

Daily Weather History Graph

Daily Weather History Graph

Search for Another Location

Airport:

Trip Planner

Search our weather history database for the weather conditions in past years. The results will help you decide how hot, cold, wet, or windy it might be!

Date:

Astronomy

Dec. 04, 2013 Rise Set
Actual Time 7:26 AM CST 5:25 PM CST
Civil Twilight 6:59 AM CST 5:53 PM CST
Nautical Twilight 6:28 AM CST 6:24 PM CST
Astronomical Twilight 5:57 AM CST 6:54 PM CST
Moon 8:58 AM CST (12/4) 7:35 PM CST (12/4)
Length of Visible Light 10h 54m
Length of Day
9h 58m
Waxing Crescent, 4% of the Moon is Illuminated
Dec 4
Waxing Crescent
Dec 9
First Quarter
Dec 17
Full
Dec 25
Last Quarter
Jan 1
New

Hourly Weather History & Observations

Time (CST) Temp. Windchill Dew Point Humidity Pressure Visibility Wind Dir Wind Speed Gust Speed Precip Events Conditions
12:53 AM 46.9 °F - 28.0 °F 48% 29.46 in 10.0 mi SSW 6.9 mph - N/A   Clear
1:53 AM 46.9 °F - 28.9 °F 50% 29.46 in 10.0 mi SSW 8.1 mph - N/A   Clear
2:53 AM 46.9 °F - 28.0 °F 48% 29.48 in 10.0 mi SSW 5.8 mph - N/A   Clear
3:53 AM 43.0 °F 38.2 °F 28.0 °F 56% 29.49 in 10.0 mi WSW 8.1 mph - N/A   Clear
4:53 AM 43.0 °F 37.2 °F 27.0 °F 53% 29.53 in 10.0 mi WSW 10.4 mph - N/A   Clear
5:53 AM 46.0 °F 39.6 °F 27.0 °F 47% 29.57 in 10.0 mi WNW 15.0 mph - N/A   Clear
6:53 AM 39.9 °F 30.8 °F 32.0 °F 73% 29.63 in 8.0 mi NNW 18.4 mph - N/A   Clear
7:53 AM 39.0 °F 32.3 °F 32.0 °F 76% 29.71 in 6.0 mi NNW 10.4 mph - N/A   Haze
8:53 AM 41.0 °F 32.2 °F 33.1 °F 73% 29.74 in 6.0 mi NNW 18.4 mph - N/A   Haze
9:53 AM 44.1 °F 35.9 °F 33.1 °F 65% 29.75 in 9.0 mi NNW 19.6 mph - N/A   Clear
10:53 AM 46.0 °F 38.8 °F 32.0 °F 58% 29.76 in 10.0 mi North 18.4 mph - N/A   Clear
11:53 AM 46.0 °F 39.6 °F 30.0 °F 54% 29.75 in 10.0 mi North 15.0 mph - N/A   Clear
12:53 PM 48.9 °F - 30.0 °F 48% 29.74 in 10.0 mi North 16.1 mph - N/A   Clear
1:53 PM 46.9 °F - 28.9 °F 50% 29.74 in 10.0 mi North 12.7 mph - N/A   Clear
2:53 PM 46.9 °F - 28.0 °F 48% 29.73 in 10.0 mi North 16.1 mph - N/A   Clear
3:53 PM 48.0 °F - 28.0 °F 46% 29.75 in 10.0 mi North 16.1 mph - N/A   Clear
4:53 PM 45.0 °F 38.5 °F 27.0 °F 49% 29.79 in 10.0 mi North 13.8 mph - N/A   Clear
5:53 PM 42.1 °F 34.5 °F 26.1 °F 53% 29.81 in 10.0 mi North 15.0 mph - N/A   Clear
6:53 PM 39.9 °F 30.8 °F 26.1 °F 58% 29.84 in 10.0 mi North 18.4 mph - N/A   Clear
7:53 PM 39.0 °F 30.3 °F 25.0 °F 57% 29.88 in 10.0 mi North 16.1 mph - N/A   Clear
8:53 PM 36.0 °F 25.3 °F 21.0 °F 55% 29.94 in 10.0 mi North 19.6 mph - N/A   Clear
9:53 PM 34.0 °F 22.4 °F 19.0 °F 54% 29.96 in 10.0 mi North 20.7 mph - N/A   Clear
10:53 PM 33.1 °F 20.6 °F 18.0 °F 54% 30.00 in 10.0 mi North 23.0 mph 28.8 mph 0.00 in   Clear
11:53 PM 32.0 °F 18.4 °F 14.0 °F 48% 30.03 in 10.0 mi North 26.5 mph 32.2 mph N/A   Mostly Cloudy